Regional Weather Roundup
Issued by NWS Little Rock, AR

Home | Current Version | Previous Version | Graphics & Text | Print | Product List | Glossary Off
Versions: 1 2 3 4 5 6 7 8 9 10 11 12 13 14 15 16 17 18 19 20 21 22 23 24 25 26 27 28 29 30 31

000
ASUS44 KLZK 191005
RWRLZK

WEATHER ROUNDUP FOR ARKANSAS
NATIONAL WEATHER SERVICE LITTLE ROCK AR
400 AM CST MON FEB 19 2018

NOTE: "FAIR" INDICATES FEW OR NO CLOUDS BELOW 12,000 FEET WITH NO
SIGNIFICANT WEATHER AND/OR OBSTRUCTIONS TO VISIBILITY.

ARZ001-003-010-029-191100-
NORTHWEST ARKANSAS

CITY           SKY/WX    TMP DP  RH WIND       PRES   REMARKS
FAYETTEVILLE   CLOUDY    60  58  92 S18G30    29.83F
FORT SMITH     LGT RAIN  52  51  97 NE6       29.87S
HARRISON       CLOUDY    57  55  93 S10       29.88S
BENTONVILLE    MOCLDY    61  56  83 S13G24    29.84F
ROGERS         CLOUDY    61  56  83 S20G25    29.83F
SILOAM SPGS    CLOUDY    60  57  89 S21       29.82F
HIGHFILL       CLOUDY    61  57  87 S17       29.82F
$$

ARZ004-005-016-191100-
NORTH CENTRAL ARKANSAS

CITY           SKY/WX    TMP DP  RH WIND       PRES   REMARKS
BATESVILLE     LGT RAIN  57  57 100 VRB7      29.98S FOG
FLIPPIN        CLOUDY    57  54  89 S7        29.91F
MTN HOME       CLOUDY    56  55  97 S8        29.90F
$$

ARZ040-041-191100-
WEST CENTRAL ARKANSAS

CITY           SKY/WX    TMP DP  RH WIND       PRES   REMARKS
MENA           CLOUDY    64  63  94 S9G21     29.92S
MOUNT IDA      CLOUDY    63  61  93 VRB5      29.90F
$$

ARZ009-017-025-026-028-191100-
NORTHEAST ARKANSAS

CITY           SKY/WX    TMP DP  RH WIND       PRES   REMARKS
JONESBORO      CLOUDY    55  55 100 S9        30.01S
NEWPORT          N/A     56  56 100 S21       29.99F
WALNUT RIDGE   CLOUDY    55  55 100 S13       29.99F
BLYTHEVILLE    FAIR      58  57  97 S14       30.04S
$$

ARZ022-023-033-042-044-191100-
CENTRAL ARKANSAS

CITY           SKY/WX    TMP DP  RH WIND       PRES   REMARKS
LITTLE ROCK    FOG       53  53 100 NE5       30.00R VSB 1/2
N LITTLE ROCK    N/A     53  53 100 CALM      29.98S
JACKSONVILLE   FOG       55  55 100 CALM      29.99S VSB 1/2
SEARCY         CLOUDY    57  32  38 S10       30.01F FOG
HOT SPRINGS    CLOUDY    61  61 100 S5        29.97F
RUSSELLVILLE   CLOUDY    51  51 100 CALM      29.93F
CLINTON        CLOUDY    48  48 100 CALM      29.97F FOG
$$

ARZ036-191100-
EAST ARKANSAS

CITY           SKY/WX    TMP DP  RH WIND       PRES   REMARKS
WEST MEMPHIS   MOCLDY    58  58 100 S15       30.04S
$$

ARZ050-053-066-070-073-191100-
SOUTHWEST ARKANSAS

CITY           SKY/WX    TMP DP  RH WIND       PRES   REMARKS
ARKADELPHIA    FOG       52  52 100 CALM      29.98F VSB 3/4
CAMDEN         MOCLDY    63  59  88 S8        30.00S
TEXARKANA      FAIR      64  61  90 S18G26    29.95S
EL DORADO      CLOUDY    64  64 100 S8        30.03S
DE QUEEN       CLOUDY    58  58 100 E5        29.92S FOG
$$

ARZ056-057-069-191100-
SOUTHEAST ARKANSAS

CITY           SKY/WX    TMP DP  RH WIND       PRES   REMARKS
PINE BLUFF     CLOUDY    63  60  90 S21G26    30.01R
STUTTGART      FAIR      59  58  96 S15       30.01S
MONTICELLO     CLOUDY    63  61  93 S9        30.04S

$$






USA.gov is the U.S. government's official web portal to all federal, state and local government web resources and services.